PDT,Max TemperatureF,Mean TemperatureF,Min TemperatureF,Max Dew PointF,MeanDew PointF,Min DewpointF,Max Humidity, Mean Humidity, Min Humidity, Max Sea Level PressureIn, Mean Sea Level PressureIn, Min Sea Level PressureIn, Max VisibilityMiles, Mean VisibilityMiles, Min VisibilityMiles, Max Wind SpeedMPH, Mean Wind SpeedMPH, Max Gust SpeedMPH,PrecipitationIn, CloudCover, Events, WindDirDegrees
2013-10-1,72,63,53,53,47,41,72,58,44,30.04,30.00,29.95,10,10,10,18,5,22,0.00,0,,350
2013-10-2,74,64,53,52,48,42,83,61,39,30.04,29.99,29.96,10,10,10,22,5,24,0.00,0,,341
2013-10-3,74,63,51,44,37,31,64,43,22,30.10,30.03,29.97,10,10,10,17,7,25,0.00,0,,297
2013-10-4,82,70,58,35,31,27,36,25,14,30.12,30.06,29.99,10,10,10,22,9,30,0.00,0,,6
2013-10-5,85,68,51,38,34,28,54,34,14,30.22,30.15,30.11,10,10,10,10,2,12,0.00,0,,340
2013-10-6,82,67,52,47,40,36,59,40,20,30.14,30.08,30.01,10,10,10,10,3,13,0.00,0,,321
2013-10-7,81,67,53,52,42,29,69,43,16,30.01,29.96,29.90,10,10,10,15,4,17,0.00,0,,345
2013-10-8,74,62,50,54,47,42,77,56,35,29.93,29.85,29.76,10,10,10,16,6,20,0.00,0,,354
2013-10-9,69,60,50,47,45,41,77,58,39,29.78,29.70,29.66,10,10,10,16,4,18,0.00,2,,63
2013-10-10,71,61,51,51,46,41,83,64,44,30.04,29.92,29.79,10,10,10,18,6,21,0.00,0,,348
2013-10-11,66,57,48,51,48,45,86,73,60,30.11,30.05,30.01,10,10,9,15,4,18,0.00,0,,341
2013-10-12,69,60,50,52,48,40,96,71,46,30.03,29.99,29.94,10,9,4,20,5,22,0.00,2,,344
2013-10-13,74,61,48,49,45,41,86,60,33,30.09,30.02,29.96,10,10,10,14,3,20,0.00,0,,326
2013-10-14,79,63,47,45,40,36,74,48,22,30.14,30.08,30.01,10,10,10,9,3,,0.00,0,,318
2013-10-15,81,66,50,43,36,31,63,40,17,30.06,30.02,29.96,10,10,10,14,3,16,0.00,0,,325
2013-10-16,81,65,49,51,39,31,59,39,18,30.10,30.06,30.02,10,10,10,12,2,16,0.00,0,,334
2013-10-17,81,66,50,51,40,28,63,39,15,30.10,30.04,29.98,10,10,10,10,3,14,0.00,0,,343
2013-10-18,75,63,50,53,48,42,77,56,35,30.08,30.03,30.00,10,10,10,12,2,13,0.00,0,,337
2013-10-19,77,64,50,54,49,44,89,61,33,30.10,30.05,30.01,10,10,7,9,2,25,0.00,0,,339
2013-10-20,70,61,51,53,50,46,93,73,53,30.05,30.00,29.94,10,7,1,13,3,14,0.00,4,,323
2013-10-21,67,60,53,52,51,50,93,76,58,30.04,29.99,29.94,10,8,5,12,3,13,0.00,4,,343
2013-10-22,67,60,52,54,51,48,93,76,58,30.05,30.00,29.95,10,8,4,10,3,25,0.00,4,,329
2013-10-23,64,59,53,52,51,49,93,80,67,30.01,29.97,29.93,10,6,2,13,4,15,0.00,5,,344
2013-10-24,60,55,49,50,49,46,89,77,64,30.14,30.07,30.01,10,9,5,8,3,13,0.00,5,,347
2013-10-25,67,58,48,51,48,45,86,69,52,30.19,30.15,30.10,10,10,7,10,2,16,0.00,3,,349
2013-10-26,73,61,48,52,49,45,93,66,38,30.17,30.11,30.04,10,10,5,10,2,14,0.00,0,,332
2013-10-27,64,57,50,50,47,44,89,71,52,30.05,29.92,29.74,10,10,9,21,6,32,0.01,5,,295
2013-10-28,64,59,53,48,45,42,77,63,48,29.88,29.76,29.71,10,10,10,18,6,28,0.00,5,,283
2013-10-29,63,56,48,48,45,42,80,66,52,30.08,29.99,29.89,10,10,10,15,4,16,0.00,5,,355
2013-10-30,67,56,44,48,44,41,92,67,42,30.17,30.12,30.09,10,10,10,13,3,16,0.00,0,,346
2013-10-31,73,59,45,49,43,41,86,60,33,30.20,30.14,30.08,10,10,10,10,2,,0.00,0,,325